This is the latest recevied weather packets stored in our database for station/object SP3SWJ-13. If no packets are shown the sender has not sent any weather packets the latest 10 day(s).
| Time | Temp. | Humidity | Pressure | Rain* | Wind** | Luminosity | Snow |
|---|---|---|---|---|---|---|---|
| 1777558414 | 15.56° C | 39% | 1019.5 hPa | - | - | 106 W/m² | - |
| 1777558113 | 15.56° C | 39% | 1019.6 hPa | - | - | 105 W/m² | - |
| 1777557812 | 15.56° C | 39% | 1019.6 hPa | - | - | 113 W/m² | - |
| 1777557511 | 15.56° C | 38% | 1019.5 hPa | - | - | 130 W/m² | - |
| 1777557210 | 15.56° C | 38% | 1019.5 hPa | - | - | 124 W/m² | - |
| 1777556909 | 15° C | 38% | 1019.6 hPa | - | - | 145 W/m² | - |
| 1777556608 | 15° C | 39% | 1019.7 hPa | - | - | 155 W/m² | - |
| 1777556307 | 15.56° C | 38% | 1019.7 hPa | - | - | 139 W/m² | - |
| 1777556006 | 15.56° C | 38% | 1019.7 hPa | - | - | 127 W/m² | - |
| 1777555705 | 15.56° C | 37% | 1019.8 hPa | - | - | 357 W/m² | - |
| 1777555404 | 15.56° C | 37% | 1019.9 hPa | - | - | 191 W/m² | - |
| 1777555104 | 15.56° C | 37% | 1019.9 hPa | - | - | 196 W/m² | - |
| 1777554802 | 15.56° C | 38% | 1019.8 hPa | - | - | 217 W/m² | - |
| 1777554502 | 15° C | 38% | 1019.8 hPa | - | - | 184 W/m² | - |
| 1777554201 | 15.56° C | 37% | 1019.9 hPa | - | - | 182 W/m² | - |
| 1777553900 | 15.56° C | 36% | 1020 hPa | - | - | 182 W/m² | - |
| 1777553599 | 15° C | 38% | 1020.1 hPa | - | - | 208 W/m² | - |
| 1777553298 | 16.11° C | 36% | 1020.1 hPa | - | - | 247 W/m² | - |
| 1777552997 | 16.67° C | 34% | 1020.2 hPa | - | - | 474 W/m² | - |
| 1777552696 | 16.11° C | 35% | 1020.2 hPa | - | - | 780 W/m² | - |
| 1777552395 | 16.67° C | 35% | 1020.3 hPa | - | - | 713 W/m² | - |
| 1777552094 | 16.67° C | 34% | 1020.4 hPa | - | - | 331 W/m² | - |
| 1777551793 | 16.11° C | 33% | 1020.4 hPa | - | - | 671 W/m² | - |
| 1777551492 | 16.67° C | 33% | 1020.5 hPa | - | - | 696 W/m² | - |
| 1777551191 | 16.11° C | 35% | 1020.5 hPa | - | - | 688 W/m² | - |
* Rain since midnight (hover to see other rain measurements)
** Current wind speed in m/s (hover to see current wind gust speed)